TimeCST,TemperatureF,Dew PointF,Humidity,Sea Level PressureIn,VisibilityMPH,Wind Direction,Wind SpeedMPH,Gust SpeedMPH,PrecipitationIn,Events,Conditions,WindDirDegrees,DateUTC
12:53 AM,35.1,32.0,89,30.35,10.0,Calm,Calm,-,N/A,,Clear,0,2012-11-29 06:53:00
1:53 AM,33.1,30.9,92,30.34,7.0,Calm,Calm,-,N/A,,Clear,0,2012-11-29 07:53:00
2:53 AM,32.0,30.0,92,30.34,10.0,Calm,Calm,-,N/A,,Clear,0,2012-11-29 08:53:00
3:53 AM,30.9,28.9,92,30.34,10.0,Calm,Calm,-,N/A,,Clear,0,2012-11-29 09:53:00
4:53 AM,30.9,28.9,92,30.34,10.0,Calm,Calm,-,N/A,,Clear,0,2012-11-29 10:53:00
5:53 AM,30.0,28.0,92,30.36,10.0,Calm,Calm,-,N/A,,Clear,0,2012-11-29 11:53:00
6:53 AM,28.9,28.0,96,30.36,5.0,Calm,Calm,-,N/A,,Clear,0,2012-11-29 12:53:00
7:53 AM,33.1,30.9,92,30.37,10.0,Calm,Calm,-,N/A,,Clear,0,2012-11-29 13:53:00
8:53 AM,41.0,35.1,79,30.38,10.0,Calm,Calm,-,N/A,,Clear,0,2012-11-29 14:53:00
9:53 AM,48.9,35.1,59,30.38,10.0,South,8.1,-,N/A,,Clear,170,2012-11-29 15:53:00
10:53 AM,55.9,33.1,42,30.36,10.0,South,9.2,-,N/A,,Clear,170,2012-11-29 16:53:00
11:53 AM,57.9,33.1,39,30.32,10.0,South,8.1,-,N/A,,Clear,170,2012-11-29 17:53:00
12:53 PM,61.0,30.9,32,30.28,10.0,South,8.1,-,N/A,,Clear,170,2012-11-29 18:53:00
1:53 PM,62.1,30.0,30,30.25,10.0,South,11.5,-,N/A,,Clear,170,2012-11-29 19:53:00
2:53 PM,63.0,30.0,29,30.24,10.0,South,10.4,-,N/A,,Clear,190,2012-11-29 20:53:00
3:53 PM,62.1,30.9,31,30.24,10.0,SSW,8.1,-,N/A,,Clear,200,2012-11-29 21:53:00
4:53 PM,55.0,35.1,47,30.23,10.0,South,5.8,-,N/A,,Clear,180,2012-11-29 22:53:00
5:53 PM,51.1,34.0,52,30.24,10.0,SSE,4.6,-,N/A,,Clear,150,2012-11-29 23:53:00
6:53 PM,50.0,34.0,54,30.24,10.0,SSE,9.2,-,N/A,,Clear,150,2012-11-30 00:53:00
7:53 PM,46.9,33.1,59,30.24,10.0,South,4.6,-,N/A,,Clear,170,2012-11-30 01:53:00
8:53 PM,46.9,33.1,59,30.24,10.0,South,5.8,-,N/A,,Clear,170,2012-11-30 02:53:00
9:53 PM,42.1,33.1,70,30.25,10.0,WNW,3.5,-,N/A,,Clear,290,2012-11-30 03:53:00
10:53 PM,39.9,34.0,79,30.23,10.0,ESE,5.8,-,N/A,,Clear,120,2012-11-30 04:53:00
11:53 PM,39.9,33.1,77,30.23,10.0,Calm,Calm,-,N/A,,Clear,0,2012-11-30 05:53:00